Location: Ambrosina
(19.9365°S, 43.9833°W)
Time: 01:45:23
(UTC+00:00)

Cosmos 405 Rocket - Pass Details

Date: 11 May 2021
Orbit: 488 x 553 km, 81.3° (Epoch: 20 June)

Event Time Altitude Azimuth Distance (km) Brightness Sun altitude
Rises 21:01:17 0° 353° (N) 2,544 6.5 -8.1°
Reaches altitude 10° 21:03:22 10° 353° (N) 1,670 5.6 -8.6°
Maximum altitude 21:07:01 85° 264° (W) 499 2.6 -9.4°
Drops below altitude 10° 21:10:45 10° 175° (S) 1,702 5.1 -10.2°
Sets 21:12:53 0° 174° (S) 2,599 6.0 -10.7°
